Time,TemperatureF,DewpointF,PressureIn,WindDirection,WindDirectionDegrees,WindSpeedMPH,WindSpeedGustMPH,Humidity,HourlyPrecipIn,Conditions,Clouds,dailyrainin,SoftwareType,DateUTC
2013-06-30 00:05:00,63.0,56.7,29.99,NNW,327,5.0,9.0,80,0.00,,,0.00,Wunderground v.1.15,2013-06-30 05:05:00,
2013-06-30 00:10:00,63.2,56.6,29.99,NNW,327,5.0,9.0,79,0.00,,,0.00,Wunderground v.1.15,2013-06-30 05:10:00,
2013-06-30 00:15:00,63.4,56.4,29.99,NNW,327,4.0,9.0,78,0.00,,,0.00,Wunderground v.1.15,2013-06-30 05:15:00,
2013-06-30 00:25:00,63.4,56.4,29.99,NNW,327,5.0,9.0,78,0.00,,,0.00,Wunderground v.1.15,2013-06-30 05:25:00,
2013-06-30 00:30:00,63.2,56.2,29.99,NNW,327,4.0,4.0,78,0.00,,,0.00,Wunderground v.1.15,2013-06-30 05:30:00,
2013-06-30 00:35:00,63.0,56.0,29.99,NNW,327,3.0,9.0,78,0.00,,,0.00,Wunderground v.1.15,2013-06-30 05:35:00,
2013-06-30 00:45:00,62.5,55.9,29.99,NNW,327,2.0,9.0,79,0.00,,,0.00,Wunderground v.1.15,2013-06-30 05:45:00,
2013-06-30 00:50:00,62.2,56.0,29.99,NNW,327,1.0,9.0,80,0.00,,,0.00,Wunderground v.1.15,2013-06-30 05:50:00,
2013-06-30 00:55:00,61.9,56.0,29.99,NNW,327,2.0,9.0,81,0.00,,,0.00,Wunderground v.1.15,2013-06-30 05:55:00,
2013-06-30 01:00:00,61.8,55.9,30.00,NNW,327,4.0,4.0,81,0.00,,,0.00,Wunderground v.1.15,2013-06-30 06:00:00,
2013-06-30 01:05:00,61.7,55.8,30.00,NW,326,4.0,6.0,81,0.00,,,0.00,Wunderground v.1.15,2013-06-30 06:05:00,
2013-06-30 01:10:00,61.8,55.9,30.00,NW,325,5.0,9.0,81,0.00,,,0.00,Wunderground v.1.15,2013-06-30 06:10:00,
2013-06-30 01:20:00,61.4,55.5,30.01,NW,325,4.0,4.0,81,0.00,,,0.00,Wunderground v.1.15,2013-06-30 06:20:00,
2013-06-30 01:25:00,61.2,55.7,30.00,NW,325,4.0,9.0,82,0.00,,,0.00,Wunderground v.1.15,2013-06-30 06:25:00,
2013-06-30 01:30:00,61.1,55.6,30.01,NW,325,4.0,4.0,82,0.00,,,0.00,Wunderground v.1.15,2013-06-30 06:30:00,
2013-06-30 01:35:00,60.7,55.5,30.00,NW,325,3.0,9.0,83,0.00,,,0.00,Wunderground v.1.15,2013-06-30 06:35:00,
2013-06-30 01:45:00,60.4,55.5,30.01,NW,306,5.0,9.0,84,0.00,,,0.00,Wunderground v.1.15,2013-06-30 06:45:00,
2013-06-30 01:50:00,60.4,55.5,30.01,WNW,302,5.0,5.0,84,0.00,,,0.00,Wunderground v.1.15,2013-06-30 06:50:00,
2013-06-30 01:55:00,60.2,55.7,30.01,WNW,302,4.0,9.0,85,0.00,,,0.00,Wunderground v.1.15,2013-06-30 06:55:00,
2013-06-30 02:05:00,60.1,55.6,30.01,WNW,302,4.0,9.0,85,0.00,,,0.00,Wunderground v.1.15,2013-06-30 07:05:00,
2013-06-30 02:10:00,60.0,55.5,30.01,WNW,302,4.0,9.0,85,0.00,,,0.00,Wunderground v.1.15,2013-06-30 07:10:00,
2013-06-30 02:15:00,59.9,55.4,30.01,WNW,302,4.0,9.0,85,0.00,,,0.00,Wunderground v.1.15,2013-06-30 07:15:00,
2013-06-30 02:25:00,59.6,55.4,30.01,WNW,302,3.0,9.0,86,0.00,,,0.00,Wunderground v.1.15,2013-06-30 07:25:00,
2013-06-30 02:30:00,59.5,55.6,30.01,WNW,302,3.0,9.0,87,0.00,,,0.00,Wunderground v.1.15,2013-06-30 07:30:00,
2013-06-30 02:35:00,59.5,55.6,30.01,WNW,302,3.0,9.0,87,0.00,,,0.00,Wunderground v.1.15,2013-06-30 07:35:00,
2013-06-30 02:40:00,59.8,55.9,30.01,NW,308,5.0,9.0,87,0.00,,,0.00,Wunderground v.1.15,2013-06-30 07:40:00,
2013-06-30 02:50:00,60.4,56.2,30.01,NW,324,6.0,6.0,86,0.00,,,0.00,Wunderground v.1.15,2013-06-30 07:50:00,
2013-06-30 02:55:00,60.4,55.9,30.01,NW,324,5.0,9.0,85,0.00,,,0.00,Wunderground v.1.15,2013-06-30 07:55:00,
2013-06-30 03:00:00,60.5,56.0,30.01,NNW,334,5.0,5.0,85,0.00,,,0.00,Wunderground v.1.15,2013-06-30 08:00:00,
2013-06-30 03:10:00,60.7,56.2,30.01,NW,325,5.0,5.0,85,0.00,,,0.00,Wunderground v.1.15,2013-06-30 08:10:00,
2013-06-30 03:15:00,60.6,56.1,30.00,NW,325,4.0,6.0,85,0.00,,,0.00,Wunderground v.1.15,2013-06-30 08:15:00,
2013-06-30 03:20:00,60.5,56.0,30.01,NW,326,3.0,3.0,85,0.00,,,0.00,Wunderground v.1.15,2013-06-30 08:20:00,
2013-06-30 03:25:00,60.4,55.9,30.01,NW,326,4.0,4.0,85,0.00,,,0.00,Wunderground v.1.15,2013-06-30 08:25:00,
2013-06-30 03:35:00,60.1,55.9,30.01,NNW,327,4.0,9.0,86,0.00,,,0.00,Wunderground v.1.15,2013-06-30 08:35:00,
2013-06-30 03:40:00,60.0,55.8,30.01,NW,324,4.0,9.0,86,0.00,,,0.00,Wunderground v.1.15,2013-06-30 08:40:00,
2013-06-30 03:45:00,59.9,55.7,30.01,NW,325,4.0,9.0,86,0.00,,,0.00,Wunderground v.1.15,2013-06-30 08:45:00,
2013-06-30 03:55:00,59.8,55.6,30.01,NW,325,4.0,9.0,86,0.00,,,0.00,Wunderground v.1.15,2013-06-30 08:55:00,
2013-06-30 04:00:00,59.8,55.6,30.01,NNW,327,4.0,9.0,86,0.00,,,0.00,Wunderground v.1.15,2013-06-30 09:00:00,
2013-06-30 04:05:00,59.7,55.5,30.01,NNW,327,4.0,9.0,86,0.00,,,0.00,Wunderground v.1.15,2013-06-30 09:05:00,
2013-06-30 04:10:00,59.7,55.5,30.01,NNW,333,3.0,9.0,86,0.00,,,0.00,Wunderground v.1.15,2013-06-30 09:10:00,
2013-06-30 04:20:00,59.7,55.5,30.01,NNW,336,3.0,9.0,86,0.00,,,0.00,Wunderground v.1.15,2013-06-30 09:20:00,
2013-06-30 04:25:00,59.6,55.4,30.01,NNW,336,2.0,9.0,86,0.00,,,0.00,Wunderground v.1.15,2013-06-30 09:25:00,
2013-06-30 04:30:00,59.5,55.3,30.01,NNW,336,2.0,9.0,86,0.00,,,0.00,Wunderground v.1.15,2013-06-30 09:30:00,
2013-06-30 04:35:00,59.3,55.1,30.01,NNW,337,1.0,9.0,86,0.00,,,0.00,Wunderground v.1.15,2013-06-30 09:35:00,
2013-06-30 04:45:00,59.0,55.1,30.01,NNW,336,2.0,3.0,87,0.00,,,0.00,Wunderground v.1.15,2013-06-30 09:45:00,
2013-06-30 04:50:00,59.1,55.2,30.01,NNW,337,2.0,9.0,87,0.00,,,0.00,Wunderground v.1.15,2013-06-30 09:50:00,
2013-06-30 04:55:00,59.2,55.3,30.01,NNW,337,2.0,9.0,87,0.00,,,0.00,Wunderground v.1.15,2013-06-30 09:55:00,
2013-06-30 05:05:00,59.2,55.3,30.01,NNW,338,2.0,9.0,87,0.00,,,0.00,Wunderground v.1.15,2013-06-30 10:05:00,
2013-06-30 05:10:00,59.2,55.3,30.01,NNW,338,1.0,1.0,87,0.00,,,0.00,Wunderground v.1.15,2013-06-30 10:10:00,
2013-06-30 05:15:00,59.1,55.2,30.02,NNW,338,1.0,9.0,87,0.00,,,0.00,Wunderground v.1.15,2013-06-30 10:15:00,
2013-06-30 05:20:00,58.8,54.9,30.02,NNW,338,0.0,9.0,87,0.00,,,0.00,Wunderground v.1.15,2013-06-30 10:20:00,
2013-06-30 05:30:00,58.2,54.7,30.02,NNW,338,2.0,9.0,88,0.00,,,0.00,Wunderground v.1.15,2013-06-30 10:30:00,
2013-06-30 05:35:00,58.0,54.5,30.02,NNW,338,3.0,9.0,88,0.00,,,0.00,Wunderground v.1.15,2013-06-30 10:35:00,
2013-06-30 05:40:00,57.9,54.4,30.02,NNW,338,3.0,9.0,88,0.00,,,0.00,Wunderground v.1.15,2013-06-30 10:40:00,
2013-06-30 05:45:00,57.9,54.7,30.03,NNW,338,3.0,9.0,89,0.00,,,0.00,Wunderground v.1.15,2013-06-30 10:45:00,
2013-06-30 05:55:00,58.0,54.5,30.03,NNW,332,4.0,9.0,88,0.00,,,0.00,Wunderground v.1.15,2013-06-30 10:55:00,
2013-06-30 06:00:00,57.9,54.4,30.03,NNW,331,4.0,9.0,88,0.00,,,0.00,Wunderground v.1.15,2013-06-30 11:00:00,
2013-06-30 06:05:00,57.8,54.3,30.04,NNW,331,4.0,9.0,88,0.00,,,0.00,Wunderground v.1.15,2013-06-30 11:05:00,
2013-06-30 06:15:00,57.6,54.4,30.04,NNW,327,5.0,9.0,89,0.00,,,0.00,Wunderground v.1.15,2013-06-30 11:15:00,
2013-06-30 06:20:00,57.6,54.4,30.04,NNW,327,4.0,9.0,89,0.00,,,0.00,Wunderground v.1.15,2013-06-30 11:20:00,
2013-06-30 06:25:00,57.6,54.4,30.04,NNW,327,5.0,9.0,89,0.00,,,0.00,Wunderground v.1.15,2013-06-30 11:25:00,
2013-06-30 06:30:00,57.5,54.3,30.05,NW,323,5.0,5.0,89,0.00,,,0.00,Wunderground v.1.15,2013-06-30 11:30:00,
2013-06-30 06:40:00,57.7,54.5,30.05,WNW,282,5.0,5.0,89,0.00,,,0.00,Wunderground v.1.15,2013-06-30 11:40:00,
2013-06-30 06:45:00,57.8,54.6,30.05,WNW,282,4.0,9.0,89,0.00,,,0.00,Wunderground v.1.15,2013-06-30 11:45:00,
2013-06-30 06:50:00,58.0,54.8,30.06,WNW,282,4.0,9.0,89,0.00,,,0.00,Wunderground v.1.15,2013-06-30 11:50:00,
2013-06-30 06:55:00,58.1,54.9,30.05,WNW,282,4.0,9.0,89,0.00,,,0.00,Wunderground v.1.15,2013-06-30 11:55:00,
2013-06-30 07:05:00,58.4,55.2,30.06,WNW,284,5.0,9.0,89,0.00,,,0.00,Wunderground v.1.15,2013-06-30 12:05:00,
2013-06-30 07:10:00,58.6,55.4,30.07,WNW,288,5.0,5.0,89,0.00,,,0.00,Wunderground v.1.15,2013-06-30 12:10:00,
2013-06-30 07:15:00,58.8,55.6,30.07,WNW,288,5.0,6.0,89,0.00,,,0.00,Wunderground v.1.15,2013-06-30 12:15:00,
2013-06-30 07:25:00,59.3,55.7,30.07,WNW,296,6.0,9.0,88,0.00,,,0.00,Wunderground v.1.15,2013-06-30 12:25:00,
2013-06-30 07:30:00,59.7,56.1,30.07,WNW,296,6.0,6.0,88,0.00,,,0.00,Wunderground v.1.15,2013-06-30 12:30:00,
2013-06-30 07:35:00,60.0,56.1,30.08,WNW,302,6.0,9.0,87,0.00,,,0.00,Wunderground v.1.15,2013-06-30 12:35:00,
2013-06-30 07:40:00,60.3,56.4,30.08,NW,308,6.0,9.0,87,0.00,,,0.00,Wunderground v.1.15,2013-06-30 12:40:00,
2013-06-30 07:50:00,60.7,56.5,30.07,NW,311,6.0,6.0,86,0.00,,,0.00,Wunderground v.1.15,2013-06-30 12:50:00,
2013-06-30 07:55:00,61.0,56.8,30.07,NW,311,6.0,7.0,86,0.00,,,0.00,Wunderground v.1.15,2013-06-30 12:55:00,
2013-06-30 08:00:00,61.2,56.7,30.07,NW,311,5.0,9.0,85,0.00,,,0.00,Wunderground v.1.15,2013-06-30 13:00:00,
2013-06-30 08:10:00,61.8,57.2,30.07,NW,311,4.0,9.0,85,0.00,,,0.00,Wunderground v.1.15,2013-06-30 13:10:00,
2013-06-30 08:15:00,62.1,57.2,30.07,NW,311,4.0,9.0,84,0.00,,,0.00,Wunderground v.1.15,2013-06-30 13:15:00,
2013-06-30 08:20:00,62.5,57.6,30.07,NW,311,4.0,9.0,84,0.00,,,0.00,Wunderground v.1.15,2013-06-30 13:20:00,
2013-06-30 08:25:00,63.0,57.4,30.07,NW,311,5.0,9.0,82,0.00,,,0.00,Wunderground v.1.15,2013-06-30 13:25:00,
2013-06-30 08:35:00,64.0,58.1,30.07,WSW,249,3.0,9.0,81,0.00,,,0.00,Wunderground v.1.15,2013-06-30 13:35:00,
2013-06-30 08:40:00,64.8,58.5,30.07,WSW,249,1.0,1.0,80,0.00,,,0.00,Wunderground v.1.15,2013-06-30 13:40:00,
2013-06-30 08:45:00,65.5,58.1,30.08,West,275,1.0,3.0,77,0.00,,,0.00,Wunderground v.1.15,2013-06-30 13:45:00,
2013-06-30 08:50:00,66.0,57.8,30.08,NNW,340,3.0,9.0,75,0.00,,,0.00,Wunderground v.1.15,2013-06-30 13:50:00,
2013-06-30 09:00:00,65.9,57.4,30.08,North,360,5.0,9.0,74,0.00,,,0.00,Wunderground v.1.15,2013-06-30 14:00:00,
2013-06-30 09:05:00,66.0,57.8,30.08,North,5,6.0,9.0,75,0.00,,,0.00,Wunderground v.1.15,2013-06-30 14:05:00,
2013-06-30 09:10:00,66.3,57.8,30.08,North,5,5.0,9.0,74,0.00,,,0.00,Wunderground v.1.15,2013-06-30 14:10:00,
2013-06-30 09:20:00,66.8,57.1,30.08,NNE,14,6.0,9.0,71,0.00,,,0.00,Wunderground v.1.15,2013-06-30 14:20:00,
2013-06-30 09:25:00,67.3,57.6,30.09,NNE,15,6.0,9.0,71,0.00,,,0.00,Wunderground v.1.15,2013-06-30 14:25:00,
2013-06-30 09:30:00,67.7,58.0,30.08,NNE,15,5.0,5.0,71,0.00,,,0.00,Wunderground v.1.15,2013-06-30 14:30:00,
2013-06-30 09:35:00,68.1,57.5,30.08,NNE,22,6.0,6.0,69,0.00,,,0.00,Wunderground v.1.15,2013-06-30 14:35:00,
2013-06-30 09:45:00,68.5,57.9,30.08,NNE,13,4.0,9.0,69,0.00,,,0.00,Wunderground v.1.15,2013-06-30 14:45:00,
2013-06-30 09:50:00,68.4,57.0,30.09,North,5,5.0,9.0,67,0.00,,,0.00,Wunderground v.1.15,2013-06-30 14:50:00,
2013-06-30 09:55:00,68.5,57.5,30.09,North,5,4.0,9.0,68,0.00,,,0.00,Wunderground v.1.15,2013-06-30 14:55:00,
2013-06-30 10:05:00,68.5,57.1,30.08,North,5,5.0,9.0,67,0.00,,,0.00,Wunderground v.1.15,2013-06-30 15:05:00,
2013-06-30 10:10:00,68.8,57.4,30.08,North,5,5.0,9.0,67,0.00,,,0.00,Wunderground v.1.15,2013-06-30 15:10:00,
2013-06-30 10:15:00,69.1,57.7,30.08,North,5,4.0,9.0,67,0.00,,,0.00,Wunderground v.1.15,2013-06-30 15:15:00,
2013-06-30 10:20:00,69.6,57.3,30.08,North,5,3.0,9.0,65,0.00,,,0.00,Wunderground v.1.15,2013-06-30 15:20:00,
2013-06-30 10:30:00,70.2,57.4,30.08,North,5,4.0,4.0,64,0.00,,,0.00,Wunderground v.1.15,2013-06-30 15:30:00,
2013-06-30 10:35:00,70.7,57.9,30.08,North,5,3.0,6.0,64,0.00,,,0.00,Wunderground v.1.15,2013-06-30 15:35:00,
2013-06-30 10:40:00,70.8,57.1,30.08,NNE,14,4.0,9.0,62,0.00,,,0.00,Wunderground v.1.15,2013-06-30 15:40:00,
2013-06-30 10:45:00,71.0,57.3,30.08,NNE,17,5.0,9.0,62,0.00,,,0.00,Wunderground v.1.15,2013-06-30 15:45:00,
2013-06-30 10:55:00,71.4,57.2,30.08,NNW,338,5.0,9.0,61,0.00,,,0.00,Wunderground v.1.15,2013-06-30 15:55:00,
2013-06-30 11:00:00,71.6,57.9,30.08,North,351,5.0,9.0,62,0.00,,,0.00,Wunderground v.1.15,2013-06-30 16:00:00,
2013-06-30 11:10:00,72.2,56.6,30.08,North,355,7.0,9.0,58,0.00,,,0.00,Wunderground v.1.15,2013-06-30 16:10:00,
2013-06-30 11:15:00,72.6,56.0,30.08,NNE,24,6.0,9.0,56,0.00,,,0.00,Wunderground v.1.15,2013-06-30 16:15:00,
2013-06-30 11:20:00,72.9,56.3,30.08,NNW,336,6.0,6.0,56,0.00,,,0.00,Wunderground v.1.15,2013-06-30 16:20:00,
2013-06-30 11:25:00,73.4,56.7,30.08,North,350,7.0,7.0,56,0.00,,,0.00,Wunderground v.1.15,2013-06-30 16:25:00,
2013-06-30 11:35:00,73.4,55.7,30.08,NE,45,8.0,11.0,54,0.00,,,0.00,Wunderground v.1.15,2013-06-30 16:35:00,
2013-06-30 11:40:00,73.6,54.9,30.08,NNE,24,8.0,8.0,52,0.00,,,0.00,Wunderground v.1.15,2013-06-30 16:40:00,
2013-06-30 11:45:00,73.7,56.0,30.08,NNE,17,8.0,9.0,54,0.00,,,0.00,Wunderground v.1.15,2013-06-30 16:45:00,
2013-06-30 11:50:00,73.8,55.6,30.08,NNE,17,7.0,10.0,53,0.00,,,0.00,Wunderground v.1.15,2013-06-30 16:50:00,
2013-06-30 12:00:00,73.7,55.5,30.08,North,355,10.0,10.0,53,0.00,,,0.00,Wunderground v.1.15,2013-06-30 17:00:00,
2013-06-30 12:05:00,73.9,56.2,30.08,NNE,30,9.0,10.0,54,0.00,,,0.00,Wunderground v.1.15,2013-06-30 17:05:00,
2013-06-30 12:10:00,74.3,56.1,30.08,NE,39,8.0,10.0,53,0.00,,,0.00,Wunderground v.1.15,2013-06-30 17:10:00,
2013-06-30 12:20:00,74.4,56.2,30.08,NE,34,9.0,9.0,53,0.00,,,0.00,Wunderground v.1.15,2013-06-30 17:20:00,
2013-06-30 12:25:00,74.3,57.1,30.08,North,350,9.0,10.0,55,0.00,,,0.00,Wunderground v.1.15,2013-06-30 17:25:00,
2013-06-30 12:30:00,74.3,56.6,30.08,NNW,341,8.0,10.0,54,0.00,,,0.00,Wunderground v.1.15,2013-06-30 17:30:00,
2013-06-30 12:35:00,74.1,55.9,30.08,NNE,28,9.0,10.0,53,0.00,,,0.00,Wunderground v.1.15,2013-06-30 17:35:00,
2013-06-30 12:45:00,74.3,57.1,30.08,NNE,28,9.0,10.0,55,0.00,,,0.00,Wunderground v.1.15,2013-06-30 17:45:00,
2013-06-30 12:50:00,74.5,56.8,30.07,ENE,57,8.0,9.0,54,0.00,,,0.00,Wunderground v.1.15,2013-06-30 17:50:00,
2013-06-30 12:55:00,74.0,56.3,30.07,NE,37,8.0,9.0,54,0.00,,,0.00,Wunderground v.1.15,2013-06-30 17:55:00,
2013-06-30 13:05:00,74.7,56.9,30.07,North,10,10.0,14.0,54,0.00,,,0.00,Wunderground v.1.15,2013-06-30 18:05:00,
2013-06-30 13:10:00,74.8,56.5,30.08,NNE,30,12.0,16.0,53,0.00,,,0.00,Wunderground v.1.15,2013-06-30 18:10:00,
2013-06-30 13:15:00,74.6,56.3,30.08,NNE,19,12.0,16.0,53,0.00,,,0.00,Wunderground v.1.15,2013-06-30 18:15:00,
2013-06-30 13:20:00,75.1,56.8,30.08,North,9,10.0,12.0,53,0.00,,,0.00,Wunderground v.1.15,2013-06-30 18:20:00,
2013-06-30 13:30:00,75.2,56.9,30.07,NE,39,11.0,11.0,53,0.00,,,0.00,Wunderground v.1.15,2013-06-30 18:30:00,
2013-06-30 13:35:00,75.6,56.2,30.08,ENE,57,10.0,18.0,51,0.00,,,0.00,Wunderground v.1.15,2013-06-30 18:35:00,
2013-06-30 13:40:00,75.1,56.3,30.08,NNE,32,11.0,11.0,52,0.00,,,0.00,Wunderground v.1.15,2013-06-30 18:40:00,
2013-06-30 13:45:00,75.1,57.3,30.08,NNE,21,11.0,15.0,54,0.00,,,0.00,Wunderground v.1.15,2013-06-30 18:45:00,
2013-06-30 13:55:00,74.9,57.1,30.08,NE,46,12.0,15.0,54,0.00,,,0.00,Wunderground v.1.15,2013-06-30 18:55:00,
2013-06-30 14:00:00,75.1,56.8,30.08,ENE,68,12.0,12.0,53,0.00,,,0.00,Wunderground v.1.15,2013-06-30 19:00:00,
2013-06-30 14:05:00,75.6,56.7,30.08,North,9,11.0,12.0,52,0.00,,,0.00,Wunderground v.1.15,2013-06-30 19:05:00,
2013-06-30 14:15:00,74.9,57.1,30.08,NNE,20,12.0,12.0,54,0.00,,,0.00,Wunderground v.1.15,2013-06-30 19:15:00,
2013-06-30 14:20:00,75.4,57.1,30.08,NNE,25,13.0,13.0,53,0.00,,,0.00,Wunderground v.1.15,2013-06-30 19:20:00,
2013-06-30 14:25:00,75.6,56.7,30.08,NNE,32,11.0,13.0,52,0.00,,,0.00,Wunderground v.1.15,2013-06-30 19:25:00,
2013-06-30 14:30:00,75.4,57.6,30.08,NE,36,11.0,13.0,54,0.00,,,0.00,Wunderground v.1.15,2013-06-30 19:30:00,
2013-06-30 14:40:00,75.5,56.6,30.08,NNE,21,11.0,11.0,52,0.00,,,0.00,Wunderground v.1.15,2013-06-30 19:40:00,
2013-06-30 14:45:00,74.9,57.1,30.08,NNE,32,11.0,13.0,54,0.00,,,0.00,Wunderground v.1.15,2013-06-30 19:45:00,
2013-06-30 14:50:00,75.0,57.2,30.08,NE,38,12.0,12.0,54,0.00,,,0.00,Wunderground v.1.15,2013-06-30 19:50:00,
2013-06-30 15:00:00,75.9,57.0,30.08,North,355,11.0,11.0,52,0.00,,,0.00,Wunderground v.1.15,2013-06-30 20:00:00,
2013-06-30 15:05:00,75.9,57.0,30.08,NNE,28,11.0,11.0,52,0.00,,,0.00,Wunderground v.1.15,2013-06-30 20:05:00,
2013-06-30 15:10:00,75.5,56.6,30.08,NE,52,12.0,13.0,52,0.00,,,0.00,Wunderground v.1.15,2013-06-30 20:10:00,
2013-06-30 15:15:00,75.4,56.0,30.08,NE,42,12.0,13.0,51,0.00,,,0.00,Wunderground v.1.15,2013-06-30 20:15:00,
2013-06-30 15:25:00,75.6,56.7,30.07,NE,42,10.0,14.0,52,0.00,,,0.00,Wunderground v.1.15,2013-06-30 20:25:00,
2013-06-30 15:30:00,75.5,58.2,30.07,NNE,29,11.0,20.0,55,0.00,,,0.00,Wunderground v.1.15,2013-06-30 20:30:00,
2013-06-30 15:35:00,75.5,56.6,30.07,NNE,15,11.0,20.0,52,0.00,,,0.00,Wunderground v.1.15,2013-06-30 20:35:00,
2013-06-30 15:40:00,75.6,56.7,30.08,NE,35,11.0,12.0,52,0.00,,,0.00,Wunderground v.1.15,2013-06-30 20:40:00,
2013-06-30 15:50:00,75.3,57.0,30.08,NNE,26,13.0,13.0,53,0.00,,,0.00,Wunderground v.1.15,2013-06-30 20:50:00,
2013-06-30 15:55:00,75.5,56.6,30.07,NE,44,13.0,13.0,52,0.00,,,0.00,Wunderground v.1.15,2013-06-30 20:55:00,
2013-06-30 16:00:00,75.0,56.2,30.07,NNE,12,11.0,11.0,52,0.00,,,0.00,Wunderground v.1.15,2013-06-30 21:00:00,
2013-06-30 16:05:00,74.9,56.6,30.07,NE,34,13.0,13.0,53,0.00,,,0.00,Wunderground v.1.15,2013-06-30 21:05:00,
2013-06-30 16:15:00,75.1,56.3,30.07,North,5,13.0,15.0,52,0.00,,,0.00,Wunderground v.1.15,2013-06-30 21:15:00,
2013-06-30 16:20:00,74.9,56.1,30.07,North,5,12.0,14.0,52,0.00,,,0.00,Wunderground v.1.15,2013-06-30 21:20:00,
2013-06-30 16:30:00,75.3,55.4,30.07,NE,44,12.0,15.0,50,0.00,,,0.00,Wunderground v.1.15,2013-06-30 21:30:00,
2013-06-30 16:35:00,75.1,55.7,30.07,NNE,32,13.0,15.0,51,0.00,,,0.00,Wunderground v.1.15,2013-06-30 21:35:00,
2013-06-30 16:40:00,75.3,55.4,30.07,NE,53,12.0,12.0,50,0.00,,,0.00,Wunderground v.1.15,2013-06-30 21:40:00,
2013-06-30 16:45:00,75.1,54.1,30.07,NE,49,12.0,12.0,48,0.00,,,0.00,Wunderground v.1.15,2013-06-30 21:45:00,
2013-06-30 16:55:00,74.6,53.6,30.07,NNE,24,13.0,13.0,48,0.00,,,0.00,Wunderground v.1.15,2013-06-30 21:55:00,
2013-06-30 17:00:00,74.5,53.5,30.08,NNE,22,12.0,12.0,48,0.00,,,0.00,Wunderground v.1.15,2013-06-30 22:00:00,
2013-06-30 17:05:00,74.6,53.6,30.07,NNE,15,11.0,15.0,48,0.00,,,0.00,Wunderground v.1.15,2013-06-30 22:05:00,
2013-06-30 17:15:00,74.5,52.4,30.08,NNE,27,12.0,12.0,46,0.00,,,0.00,Wunderground v.1.15,2013-06-30 22:15:00,
2013-06-30 17:20:00,74.6,53.0,30.08,NNE,24,12.0,12.0,47,0.00,,,0.00,Wunderground v.1.15,2013-06-30 22:20:00,
2013-06-30 17:25:00,74.4,53.4,30.08,NNE,24,11.0,17.0,48,0.00,,,0.00,Wunderground v.1.15,2013-06-30 22:25:00,
2013-06-30 17:35:00,74.4,52.3,30.08,NNE,23,12.0,14.0,46,0.00,,,0.00,Wunderground v.1.15,2013-06-30 22:35:00,
2013-06-30 17:40:00,74.6,54.2,30.08,ENE,61,9.0,10.0,49,0.00,,,0.00,Wunderground v.1.15,2013-06-30 22:40:00,
2013-06-30 17:45:00,74.4,52.3,30.08,NNE,33,9.0,10.0,46,0.00,,,0.00,Wunderground v.1.15,2013-06-30 22:45:00,
2013-06-30 17:55:00,74.1,52.6,30.08,NE,44,11.0,13.0,47,0.00,,,0.00,Wunderground v.1.15,2013-06-30 22:55:00,
2013-06-30 18:00:00,74.1,52.0,30.08,NE,55,12.0,14.0,46,0.00,,,0.00,Wunderground v.1.15,2013-06-30 23:00:00,
2013-06-30 18:05:00,74.1,52.6,30.08,North,355,10.0,14.0,47,0.00,,,0.00,Wunderground v.1.15,2013-06-30 23:05:00,
2013-06-30 18:10:00,74.0,51.9,30.08,NE,34,10.0,10.0,46,0.00,,,0.00,Wunderground v.1.15,2013-06-30 23:10:00,
2013-06-30 18:20:00,73.9,50.6,30.08,NE,50,11.0,11.0,44,0.00,,,0.00,Wunderground v.1.15,2013-06-30 23:20:00,
2013-06-30 18:25:00,73.8,51.1,30.08,ENE,65,10.0,11.0,45,0.00,,,0.00,Wunderground v.1.15,2013-06-30 23:25:00,
2013-06-30 18:30:00,73.9,51.2,30.08,NE,52,11.0,12.0,45,0.00,,,0.00,Wunderground v.1.15,2013-06-30 23:30:00,
2013-06-30 18:40:00,73.8,52.3,30.08,NE,46,9.0,13.0,47,0.00,,,0.00,Wunderground v.1.15,2013-06-30 23:40:00,
2013-06-30 18:45:00,73.5,51.4,30.08,ENE,68,10.0,13.0,46,0.00,,,0.00,Wunderground v.1.15,2013-06-30 23:45:00,
2013-06-30 18:50:00,73.2,51.2,30.08,NNE,32,12.0,12.0,46,0.00,,,0.00,Wunderground v.1.15,2013-06-30 23:50:00,
2013-06-30 18:55:00,73.3,51.8,30.08,NE,52,11.0,12.0,47,0.00,,,0.00,Wunderground v.1.15,2013-06-30 23:55:00,
2013-06-30 19:05:00,73.0,51.6,30.09,NE,53,11.0,13.0,47,0.00,,,0.00,Wunderground v.1.15,2013-07-01 00:05:00,
2013-06-30 19:10:00,72.8,52.0,30.09,NE,48,12.0,12.0,48,0.00,,,0.00,Wunderground v.1.15,2013-07-01 00:10:00,
2013-06-30 19:15:00,72.8,51.4,30.09,NE,49,11.0,12.0,47,0.00,,,0.00,Wunderground v.1.15,2013-07-01 00:15:00,
2013-06-30 19:20:00,72.7,51.9,30.09,NE,53,10.0,10.0,48,0.00,,,0.00,Wunderground v.1.15,2013-07-01 00:20:00,
2013-06-30 19:30:00,72.7,51.9,30.09,NNE,27,7.0,7.0,48,0.00,,,0.00,Wunderground v.1.15,2013-07-01 00:30:00,
2013-06-30 19:35:00,72.6,51.8,30.09,NE,40,7.0,9.0,48,0.00,,,0.00,Wunderground v.1.15,2013-07-01 00:35:00,
2013-06-30 19:45:00,72.2,52.5,30.09,NE,54,8.0,9.0,50,0.00,,,0.00,Wunderground v.1.15,2013-07-01 00:45:00,
2013-06-30 19:50:00,72.0,52.3,30.09,NE,53,8.0,8.0,50,0.00,,,0.00,Wunderground v.1.15,2013-07-01 00:50:00,
2013-06-30 19:55:00,71.9,52.2,30.09,NE,49,8.0,9.0,50,0.00,,,0.00,Wunderground v.1.15,2013-07-01 00:55:00,
2013-06-30 20:00:00,71.6,53.0,30.09,NE,40,7.0,7.0,52,0.00,,,0.00,Wunderground v.1.15,2013-07-01 01:00:00,
2013-06-30 20:10:00,71.2,53.2,30.09,NE,36,4.0,4.0,53,0.00,,,0.00,Wunderground v.1.15,2013-07-01 01:10:00,
2013-06-30 20:15:00,70.8,53.3,30.09,NE,34,3.0,9.0,54,0.00,,,0.00,Wunderground v.1.15,2013-07-01 01:15:00,
2013-06-30 20:20:00,70.4,53.5,30.09,NE,34,2.0,9.0,55,0.00,,,0.00,Wunderground v.1.15,2013-07-01 01:20:00,
2013-06-30 20:25:00,70.0,54.1,30.10,NNE,31,2.0,9.0,57,0.00,,,0.00,Wunderground v.1.15,2013-07-01 01:25:00,
2013-06-30 20:35:00,69.1,54.6,30.10,NNE,31,2.0,9.0,60,0.00,,,0.00,Wunderground v.1.15,2013-07-01 01:35:00,
2013-06-30 20:40:00,68.7,54.7,30.10,NNE,31,3.0,9.0,61,0.00,,,0.00,Wunderground v.1.15,2013-07-01 01:40:00,
2013-06-30 20:45:00,68.5,55.0,30.10,NNE,31,3.0,9.0,62,0.00,,,0.00,Wunderground v.1.15,2013-07-01 01:45:00,
2013-06-30 20:55:00,68.0,54.5,30.10,NNE,31,3.0,9.0,62,0.00,,,0.00,Wunderground v.1.15,2013-07-01 01:55:00,
2013-06-30 21:00:00,67.7,54.6,30.11,NNE,29,3.0,3.0,63,0.00,,,0.00,Wunderground v.1.15,2013-07-01 02:00:00,
2013-06-30 21:05:00,67.2,54.2,30.10,NNE,29,3.0,4.0,63,0.00,,,0.00,Wunderground v.1.15,2013-07-01 02:05:00,
2013-06-30 21:10:00,66.9,54.3,30.10,NNE,29,3.0,3.0,64,0.00,,,0.00,Wunderground v.1.15,2013-07-01 02:10:00,
2013-06-30 21:20:00,65.9,54.2,30.11,NNE,29,3.0,9.0,66,0.00,,,0.00,Wunderground v.1.15,2013-07-01 02:20:00,
2013-06-30 21:25:00,65.6,53.9,30.11,NNE,29,3.0,9.0,66,0.00,,,0.00,Wunderground v.1.15,2013-07-01 02:25:00,
2013-06-30 21:30:00,65.4,54.2,30.11,NNE,29,3.0,3.0,67,0.00,,,0.00,Wunderground v.1.15,2013-07-01 02:30:00,
2013-06-30 21:35:00,65.3,54.1,30.11,NNE,28,3.0,4.0,67,0.00,,,0.00,Wunderground v.1.15,2013-07-01 02:35:00,
2013-06-30 21:45:00,64.7,53.9,30.12,NNE,27,3.0,9.0,68,0.00,,,0.00,Wunderground v.1.15,2013-07-01 02:45:00,
2013-06-30 21:50:00,64.5,54.1,30.12,NNE,27,3.0,9.0,69,0.00,,,0.00,Wunderground v.1.15,2013-07-01 02:50:00,
2013-06-30 21:55:00,64.4,54.0,30.12,NNE,27,3.0,9.0,69,0.00,,,0.00,Wunderground v.1.15,2013-07-01 02:55:00,
2013-06-30 22:05:00,64.2,53.8,30.13,NNE,27,3.0,9.0,69,0.00,,,0.00,Wunderground v.1.15,2013-07-01 03:05:00,
2013-06-30 22:10:00,64.1,53.7,30.13,NNE,27,3.0,9.0,69,0.00,,,0.00,Wunderground v.1.15,2013-07-01 03:10:00,
2013-06-30 22:15:00,63.8,53.8,30.13,NNE,27,3.0,9.0,70,0.00,,,0.00,Wunderground v.1.15,2013-07-01 03:15:00,
2013-06-30 22:20:00,63.5,53.5,30.13,NNE,27,3.0,9.0,70,0.00,,,0.00,Wunderground v.1.15,2013-07-01 03:20:00,
2013-06-30 22:30:00,63.0,53.4,30.13,NNE,27,3.0,3.0,71,0.00,,,0.00,Wunderground v.1.15,2013-07-01 03:30:00,
2013-06-30 22:35:00,62.9,53.4,30.13,NNE,27,4.0,4.0,71,0.00,,,0.00,Wunderground v.1.15,2013-07-01 03:35:00,
2013-06-30 22:45:00,62.8,53.3,30.13,NNE,28,4.0,9.0,71,0.00,,,0.00,Wunderground v.1.15,2013-07-01 03:45:00,
2013-06-30 22:50:00,62.7,53.2,30.14,NNE,30,4.0,4.0,71,0.00,,,0.00,Wunderground v.1.15,2013-07-01 03:50:00,
2013-06-30 22:55:00,62.7,53.2,30.14,NNE,30,3.0,9.0,71,0.00,,,0.00,Wunderground v.1.15,2013-07-01 03:55:00,
2013-06-30 23:00:00,62.8,53.3,30.14,NNE,30,3.0,9.0,71,0.00,,,0.00,Wunderground v.1.15,2013-07-01 04:00:00,
2013-06-30 23:05:00,62.6,53.1,30.14,NE,34,3.0,9.0,71,0.00,,,0.00,Wunderground v.1.15,2013-07-01 04:05:00,
2013-06-30 23:10:00,62.6,52.7,30.14,NNE,27,3.0,9.0,70,0.00,,,0.00,Wunderground v.1.15,2013-07-01 04:10:00,
2013-06-30 23:15:00,62.7,52.8,30.14,NE,36,4.0,9.0,70,0.00,,,0.00,Wunderground v.1.15,2013-07-01 04:15:00,
2013-06-30 23:20:00,62.7,52.8,30.14,NE,36,3.0,9.0,70,0.00,,,0.00,Wunderground v.1.15,2013-07-01 04:20:00,
2013-06-30 23:25:00,62.6,52.7,30.14,NNE,33,3.0,9.0,70,0.00,,,0.00,Wunderground v.1.15,2013-07-01 04:25:00,
2013-06-30 23:35:00,62.2,52.7,30.14,NNE,31,3.0,9.0,71,0.00,,,0.00,Wunderground v.1.15,2013-07-01 04:35:00,
2013-06-30 23:40:00,62.0,52.5,30.14,NNE,27,3.0,9.0,71,0.00,,,0.00,Wunderground v.1.15,2013-07-01 04:40:00,
2013-06-30 23:50:00,61.4,52.3,30.14,NNE,27,3.0,9.0,72,0.00,,,0.00,Wunderground v.1.15,2013-07-01 04:50:00,
2013-06-30 23:55:00,61.3,52.2,30.14,NNE,29,4.0,9.0,72,0.00,,,0.00,Wunderground v.1.15,2013-07-01 04:55:00,